EW6086 Weather Reports


time (UTC)temp
C
wind
direction
speed
KPH
gust
KPH
rain 1hr
cm
rain 24hr
cm
rain mn
cm
humidity
%
barometer
mb
20260506221951 28 90 0.0 0.0 0.56 3.10 7.09 86 1007.2
20260506221454 27 90 0.0 0.0 0.66 3.10 7.09 86 1007.1
20260506220949 27 90 0.0 0.0 0.76 3.10 7.09 86 1007.2
20260506220447 27 90 0.0 0.0 0.91 3.10 7.09 86 1007.3
20260506215947 27 90 0.0 0.0 1.22 3.10 7.09 86 1007.2
20260506215448 27 90 0.0 0.0 1.30 3.07 7.06 86 1007.2
20260506214947 27 90 0.0 0.0 1.47 3.05 7.04 86 1007.2
20260506214719 27 90 0.0 0.0 1.55 2.97 6.96 86 1007.3
20260506213947 27 90 0.0 0.0 1.65 2.92 6.91 86 1007.3
20260506213447 27 90 0.0 0.0 1.70 2.92 6.91 86 1007.4
20260506212949 27 90 0.0 0.0 1.65 2.79 6.78 86 1007.4
20260506212444 27 90 0.0 0.0 1.91 2.67 6.68 86 1007.3
20260506211941 27 90 0.0 0.0 1.91 2.54 6.53 86 1007.3
20260506211714 27 90 0.0 0.0 1.85 2.44 6.43 86 1007.3
20260506210942 27 90 0.0 0.0 1.75 2.34 6.32 86 1007.3
20260506210442 27 90 0.0 0.0 1.63 2.18 6.17 86 1007.3
20260506205942 27 90 0.0 0.0 1.32 1.88 5.92 85 1007.4
20260506205441 27 90 0.0 0.0 1.17 1.73 5.77 85 1007.5
20260506204942 28 90 0.0 0.0 1.02 1.57 5.56 85 1007.5
20260506204441 28 90 0.0 0.0 0.86 1.42 5.41 85 1007.6
20260506204214 28 90 0.0 0.0 0.71 1.27 5.26 84 1007.6
20260506203713 28 90 0.0 0.0 0.66 1.22 5.21 84 1007.6
20260506202435 29 90 0.0 0.0 0.25 0.76 4.83 84 1007.7
20260506202201 29 90 0.0 0.0 0.15 0.64 4.65 84 1007.7
20260506201658 29 90 0.0 0.0 0.10 0.58 4.60 85 1007.8
20260506200918 29 90 0.0 0.0 0.13 0.58 4.57 85 1007.8
20260506200412 28 90 0.0 0.0 0.10 0.56 4.55 86 1007.8
20260506195906 28 90 0.0 0.0 0.10 0.56 4.55 87 1007.9
20260506195400 28 90 0.0 0.0 0.10 0.56 4.55 87 1007.9
20260506194854 28 90 0.0 0.0 0.10 0.56 4.55 87 1007.9
20260506194347 28 90 0.0 0.0 0.10 0.56 4.55 88 1008.0
20260506193842 27 90 0.0 0.0 0.10 0.56 4.55 89 1008.1
20260506193336 27 90 0.0 0.0 0.10 0.56 4.55 89 1008.1
20260506192830 27 90 0.0 0.0 0.08 0.53 4.52 90 1008.2
20260506192323 27 90 0.0 0.0 0.03 0.48 4.50 90 1008.2
20260506191818 27 90 0.0 0.0 0.03 0.48 4.47 90 1008.4
20260506191312 27 90 0.0 0.0 0.03 0.48 4.47 90 1008.4
20260506190806 27 90 0.0 0.0 0.00 0.46 4.45 90 1008.5
20260506190300 26 90 0.0 0.0 0.00 0.46 4.45 90 1008.6
20260506185754 26 90 0.0 0.0 0.05 0.46 4.45 90 1008.6
20260506185247 26 90 0.0 0.0 0.05 0.46 4.45 90 1008.8
20260506184742 26 90 0.0 0.0 0.05 0.46 4.45 89 1008.9
20260506184236 26 90 0.0 0.0 0.05 0.46 4.45 89 1008.9
20260506183730 26 90 0.0 0.0 0.05 0.46 4.45 89 1009.0
20260506183224 26 90 0.0 0.0 0.08 0.46 4.45 89 1009.0
20260506182718 26 90 0.0 0.0 0.10 0.46 4.45 89 1009.1
20260506182212 26 90 0.0 0.0 0.18 0.46 4.45 89 1009.2
20260506181708 26 90 0.0 0.0 0.36 0.46 4.45 89 1009.2
20260506181200 26 90 0.0 0.0 0.36 0.46 4.45 89 1009.3
20260506180653 26 90 0.0 0.0 0.41 0.46 4.45 89 1009.3
20260506180148 26 90 0.0 0.0 0.41 0.46 4.45 89 1009.3
20260506175642 26 90 0.0 0.0 0.36 0.41 4.39 89 1009.3
20260506175410 26 90 0.0 0.0 0.36 0.41 4.39 89 1009.2
20260506174630 26 90 0.0 0.0 0.36 0.41 4.39 89 1009.2
20260506174124 26 90 0.0 0.0 0.36 0.41 4.39 90 1009.3
20260506173617 26 90 0.0 0.0 0.36 0.41 4.39 90 1009.3
20260506173112 26 90 0.0 0.0 0.33 0.38 4.37 90 1009.3
20260506172836 26 90 0.0 0.0 0.28 0.30 4.32 90 1009.3
20260506172331 26 90 0.0 0.0 0.20 0.20 4.19 90 1009.3
20260506171553 26 90 0.0 0.0 0.10 0.10 4.09 90 1009.2
20260506171048 26 90 0.0 0.0 0.10 0.10 4.09 90 1009.1
20260506170542 26 90 0.0 0.0 0.05 0.05 4.04 90 1009.2
20260506165800 25 90 0.0 0.0 0.05 0.05 4.04 90 1009.3
20260506165024 25 90 0.0 0.0 0.05 0.05 4.04 90 1009.3
20260506164518 25 90 0.0 0.0 0.05 0.05 4.04 90 1009.2
20260506164011 25 90 0.0 0.0 0.05 0.05 4.04 90 1009.3
20260506163507 25 90 0.0 0.0 0.05 0.05 4.04 89 1009.2
20260506162959 25 90 0.0 0.0 0.05 0.05 4.04 89 1009.2
20260506162454 25 90 0.0 0.0 0.03 0.03 4.01 89 1009.1
20260506161950 25 90 0.0 0.0 0.00 0.00 3.99 89 1009.0
20260506161446 25 90 0.0 0.0 0.00 0.00 3.99 89 1009.0
20260506160948 25 90 0.0 0.0 0.00 0.00 3.99 89 1009.0
20260506155855 25 90 0.0 0.0 0.94 19.79 3.84 89 1008.7
20260506155341 25 90 0.0 0.0 1.02 19.79 3.84 89 1008.7
20260506154839 25 90 0.0 0.0 1.14 19.79 3.84 88 1008.6
20260506154608 25 90 0.0 0.0 1.24 19.79 3.84 88 1008.7
20260506153835 26 90 0.0 0.0 1.83 19.79 3.84 88 1008.7
20260506153605 26 90 0.0 0.0 2.13 19.79 3.84 88 1008.6
20260506152830 26 90 0.0 0.0 2.59 19.79 3.84 87 1008.5
20260506152601 26 90 0.0 0.0 2.90 19.79 3.84 87 1008.4
20260506151829 26 90 0.0 0.0 3.00 19.68 3.76 87 1008.3
20260506151329 26 90 0.0 0.0 3.25 19.61 3.66 87 1008.2
20260506150827 26 90 0.0 0.0 3.15 19.38 3.43 86 1008.2
20260506150325 26 90 0.0 0.0 3.07 19.25 3.30 87 1008.1
20260506145823 26 90 0.0 0.0 2.67 18.85 2.92 87 1008.0
20260506145322 26 90 0.0 0.0 2.62 18.77 2.82 87 1008.1
20260506144825 26 90 0.0 0.0 2.54 18.64 2.69 87 1008.0
20260506144324 26 90 0.0 0.0 2.51 18.54 2.59 87 1008.0
20260506143823 26 90 0.0 0.0 1.93 17.96 2.21 87 1007.8
20260506143324 26 90 0.0 0.0 1.63 17.65 1.70 88 1007.8
20260506142819 26 90 0.0 0.0 1.17 17.20 1.27 88 1007.8
20260506142316 26 90 0.0 0.0 0.86 16.89 0.97 88 1007.8
20260506141816 26 90 0.0 0.0 0.66 16.69 0.74 89 1007.8
20260506141316 26 90 0.0 0.0 0.33 16.36 0.43 89 1007.9
20260506141048 26 90 0.0 0.0 0.20 16.23 0.28 89 1008.0
20260506140314 25 90 0.0 0.0 0.15 16.18 0.23 89 1008.0
20260506135816 25 90 0.0 0.0 0.15 16.18 0.23 89 1008.0
20260506135315 25 90 0.0 0.0 0.13 16.15 0.20 89 1008.0
20260506134814 25 90 0.0 0.0 0.08 16.10 0.15 89 1007.9
20260506134316 25 90 0.0 0.0 0.00 16.03 0.10 89 1008.0
20260506133813 25 90 0.0 0.0 0.00 16.03 0.08 89 1008.0
20260506133311 25 90 0.0 0.0 0.00 16.03 0.08 89 1007.9
20260506132811 25 90 0.0 0.0 0.00 16.03 0.08 89 1007.8
20260506132310 25 90 0.0 0.0 0.00 16.03 0.08 89 1007.8
20260506131811 25 90 0.0 0.0 0.00 16.03 0.08 89 1007.8
20260506131311 25 90 0.0 0.0 0.00 16.03 0.08 90 1007.9
20260506130828 25 90 0.0 0.0 0.00 16.03 0.08 90 1007.8
20260506130315 25 90 0.0 0.0 0.00 16.03 0.08 90 1007.9
20260506125812 25 90 0.0 0.0 0.00 16.03 0.08 90 1007.8
20260506125307 25 90 0.0 0.0 0.00 16.03 0.08 90 1007.9
20260506124808 25 90 0.0 0.0 0.00 16.03 0.08 90 1007.8
20260506124307 25 90 0.0 0.0 0.00 16.03 0.08 90 1007.8
20260506123806 25 90 0.0 0.0 0.00 16.03 0.08 90 1007.7
20260506123308 25 90 0.0 0.0 0.00 16.03 0.08 90 1007.7
20260506122807 25 90 0.0 0.0 0.00 16.03 0.08 90 1007.7
20260506122308 25 90 0.0 0.0 0.00 16.03 0.08 90 1007.7
20260506121805 25 90 0.0 0.0 0.00 16.03 0.08 90 1007.6
20260506121538 25 90 0.0 0.0 0.00 16.03 0.08 90 1007.6
20260506121044 25 90 0.0 0.0 0.00 16.03 0.08 90 1007.6
20260506120254 25 90 0.0 0.0 0.00 16.03 0.08 90 1007.5
20260506115749 25 90 0.0 0.0 0.00 16.03 0.08 90 1007.5
20260506114736 25 90 0.0 0.0 0.00 16.03 0.08 89 1007.4
20260506114501 25 90 0.0 0.0 0.00 16.03 0.08 89 1007.3
20260506113724 25 90 0.0 0.0 0.00 16.03 0.08 89 1007.3
20260506113218 25 90 0.0 0.0 0.00 16.03 0.08 89 1007.3
20260506112712 25 90 0.0 0.0 0.00 16.03 0.08 89 1007.3
20260506112207 25 90 0.0 0.0 0.00 16.03 0.08 89 1007.3
20260506111700 25 90 0.0 0.0 0.00 16.03 0.08 89 1007.3
20260506111154 25 90 0.0 0.0 0.00 16.03 0.08 89 1007.3
20260506110648 25 90 0.0 0.0 0.00 16.03 0.08 89 1007.3
20260506110145 25 90 0.0 0.0 0.00 16.03 0.08 89 1007.4
20260506105636 25 90 0.0 0.0 0.00 16.03 0.08 89 1007.4
20260506105130 25 90 0.0 0.0 0.00 16.03 0.08 89 1007.5
20260506104624 25 90 0.0 0.0 0.00 16.03 0.08 89 1007.5
20260506104118 25 90 0.0 0.0 0.00 16.03 0.08 89 1007.3
20260506103613 25 90 0.0 0.0 0.00 16.03 0.08 89 1007.3
20260506103106 25 90 0.0 0.0 0.00 16.03 0.08 89 1007.3
20260506102831 25 90 0.0 0.0 0.00 16.03 0.08 89 1007.3
20260506102055 25 90 0.0 0.0 0.00 16.03 0.08 89 1007.4
20260506101549 25 90 0.0 0.0 0.00 16.03 0.08 89 1007.4
20260506101042 25 90 0.0 0.0 0.00 16.03 0.08 89 1007.3
20260506100809 25 90 0.0 0.0 0.00 16.03 0.08 89 1007.2
20260506100032 25 90 0.0 0.0 0.00 16.03 0.08 89 1007.1
20260506095524 25 90 0.0 0.0 0.00 16.03 0.08 89 1007.0
20260506095018 25 90 0.0 0.0 0.00 16.03 0.08 89 1007.0
20260506094513 25 90 0.0 0.0 0.00 16.03 0.08 89 1007.1
20260506094007 25 90 0.0 0.0 0.00 16.03 0.08 89 1007.1
20260506093500 25 90 0.0 0.0 0.00 16.03 0.08 89 1007.0
20260506092955 25 90 0.0 0.0 0.00 16.03 0.08 89 1007.0
20260506092449 25 90 0.0 0.0 0.00 16.03 0.08 89 1007.0
20260506092214 25 90 0.0 0.0 0.00 16.03 0.08 89 1006.9
20260506091436 25 90 0.0 0.0 0.00 16.03 0.08 89 1007.0
20260506090931 25 90 0.0 0.0 0.00 16.03 0.08 89 1007.0
20260506090425 25 90 0.0 0.0 0.00 16.03 0.08 89 1006.9
20260506085918 25 90 0.0 0.0 0.00 16.03 0.08 89 1007.0
20260506085413 25 90 0.0 0.0 0.00 16.03 0.08 89 1007.1
20260506084907 25 90 0.0 0.0 0.00 16.03 0.08 89 1007.0
20260506084401 25 90 0.0 0.0 0.00 16.03 0.08 89 1006.9
20260506083349 25 90 0.0 0.0 0.00 16.03 0.08 89 1007.0
20260506082842 25 90 0.0 0.0 0.00 16.03 0.08 89 1007.1
20260506082336 25 90 0.0 0.0 0.00 16.03 0.08 89 1007.1
20260506081831 25 90 0.0 0.0 0.00 16.03 0.08 89 1007.0
20260506081324 25 90 0.0 0.0 0.00 16.03 0.08 89 1007.0
20260506080818 25 90 0.0 0.0 0.00 16.03 0.08 89 1007.1
20260506080312 25 90 0.0 0.0 0.00 16.03 0.08 89 1007.3
20260506073237 25 90 0.0 0.0 0.00 16.03 0.08 88 1007.5
20260506072730 25 90 0.0 0.0 0.00 16.03 0.08 88 1007.6
20260506072224 25 90 0.0 0.0 0.00 16.03 0.08 88 1007.6
20260506071719 25 90 0.0 0.0 0.03 16.03 0.08 88 1007.7
20260506071213 25 90 0.0 0.0 0.03 16.03 0.08 88 1008.0
20260506070943 25 90 0.0 0.0 0.03 16.03 0.08 88 1008.0
20260506070209 25 90 0.0 0.0 0.03 16.03 0.08 88 1008.0
20260506062208 25 90 0.0 0.0 0.05 16.03 0.08 88 1008.2
20260506061707 25 90 0.0 0.0 0.03 16.00 0.05 88 1008.2
20260506061208 25 90 0.0 0.0 0.03 16.00 0.05 88 1008.2
20260506060708 25 90 0.0 0.0 0.03 16.00 0.05 88 1008.2
20260506060208 25 90 0.0 0.0 0.03 16.00 0.05 88 1008.2
20260506051220 25 90 0.0 0.0 0.38 15.98 0.03 87 1007.9
20260506050708 25 90 0.0 0.0 0.38 15.98 0.03 88 1007.9
20260506050209 25 90 0.0 0.0 0.46 15.98 0.03 88 1007.9
20260506044437 25 90 0.0 0.0 1.22 15.88 16.84 88 1007.8
20260506043937 25 90 0.0 0.0 1.24 15.85 16.84 87 1007.8
20260506043205 25 90 0.0 0.0 1.17 15.72 16.69 88 1007.7
20260506042704 25 90 0.0 0.0 1.19 15.72 16.69 88 1007.7
20260506042204 25 90 0.0 0.0 1.14 15.67 16.66 87 1007.8
20260506041704 25 90 0.0 0.0 1.22 15.65 16.61 87 1007.7
20260506041206 25 90 0.0 0.0 1.27 15.60 16.56 87 1007.8
20260506040706 25 90 0.0 0.0 1.27 15.60 16.56 87 1007.8
20260506040205 25 90 0.0 0.0 1.19 15.52 16.48 87 1007.9
20260506035705 25 90 0.0 0.0 1.04 15.29 16.31 87 1007.8
20260506035203 25 90 0.0 0.0 0.81 14.99 15.98 87 1007.7
20260506034933 25 90 0.0 0.0 0.61 14.78 15.80 87 1007.7
20260506034200 25 90 0.0 0.0 0.53 14.66 15.62 87 1007.7
20260506033658 25 90 0.0 0.0 0.53 14.61 15.60 87 1007.7
20260506033158 25 90 0.0 0.0 0.53 14.55 15.54 87 1007.7
20260506032924 25 90 0.0 0.0 0.56 14.53 15.49 87 1007.6
20260506032147 25 90 0.0 0.0 0.66 14.53 15.49 87 1007.5
20260506031911 25 90 0.0 0.0 0.53 14.40 15.39 87 1007.5
20260506031134 25 90 0.0 0.0 0.48 14.33 15.29 87 1007.5
20260506030629 25 90 0.0 0.0 0.58 14.33 15.29 88 1007.4
20260506030123 25 90 0.0 0.0 0.69 14.33 15.29 88 1007.3
20260506025617 25 90 0.0 0.0 0.69 14.25 15.21 88 1007.2
20260506025110 25 90 0.0 0.0 0.71 14.17 15.14 88 1007.2
20260506024604 25 90 0.0 0.0 0.91 14.17 15.14 88 1007.1
20260506024058 25 90 0.0 0.0 1.04 14.12 15.09 88 1007.0
20260506023552 25 90 0.0 0.0 1.07 14.07 15.04 88 1006.9
20260506023046 25 90 0.0 0.0 1.04 14.02 14.99 88 1007.0
20260506022541 25 90 0.0 0.0 1.02 13.94 14.94 88 1006.9
20260506022036 25 90 0.0 0.0 0.99 13.87 14.83 88 1006.8
20260506021542 25 90 0.0 0.0 1.04 13.87 14.83 88 1006.9
20260506021023 25 90 0.0 0.0 1.04 13.84 14.81 88 1006.7
20260506020516 25 90 0.0 0.0 1.07 13.74 14.71 88 1006.6
20260506020239 25 90 0.0 0.0 1.22 13.64 14.61 88 1006.5
20260506015502 25 90 0.0 0.0 1.14 13.49 14.45 87 1006.5
20260506014957 25 90 0.0 0.0 1.17 13.44 14.40 87 1006.5
20260506014721 25 90 0.0 0.0 1.14 13.16 14.22 87 1006.5
20260506013945 25 90 0.0 0.0 1.22 13.08 14.05 87 1006.5
20260506013439 25 90 0.0 0.0 1.35 13.00 13.97 87 1006.4
20260506012933 25 90 0.0 0.0 1.75 12.98 13.94 87 1006.3
20260506012427 25 90 0.0 0.0 1.96 12.90 13.89 87 1006.2
20260506011921 25 90 0.0 0.0 2.18 12.83 13.79 87 1006.2
20260506011414 25 90 0.0 0.0 2.46 12.83 13.79 87 1006.2
20260506010908 25 90 0.0 0.0 2.36 12.73 13.69 87 1006.1
20260506010415 25 90 0.0 0.0 2.36 12.65 13.61 87 1006.0
20260506005857 25 90 0.0 0.0 2.39 12.42 13.39 87 1005.8
20260506005350 25 90 0.0 0.0 2.36 12.29 13.26 86 1005.9
20260506005117 25 90 0.0 0.0 2.49 12.19 13.16 86 1005.6
20260506004338 25 90 0.0 0.0 2.34 12.01 12.98 86 1005.6
20260506003833 25 90 0.0 0.0 2.08 11.68 12.80 86 1005.7
20260506003326 25 90 0.0 0.0 2.01 11.56 12.52 86 1005.7
20260506002820 26 90 0.0 0.0 1.70 11.23 12.19 86 1005.6
20260506002545 26 90 0.0 0.0 1.42 10.90 11.86 86 1005.6
20260506001302 26 90 0.0 0.0 1.14 10.36 11.33 86 1005.6
20260506001027 26 90 0.0 0.0 1.22 10.29 11.25 86 1005.7
20260506000251 26 90 0.0 0.0 1.32 10.29 11.25 86 1005.7
20260505235744 26 90 0.0 0.0 1.14 10.01 11.00 86 1005.7
20260505235510 26 90 0.0 0.0 1.07 9.91 10.90 85 1005.6
20260505234732 26 90 0.0 0.0 0.91 9.70 10.67 85 1005.7
20260505234457 26 90 0.0 0.0 0.91 9.65 10.62 85 1005.7
20260505233720 26 90 0.0 0.0 0.94 9.60 10.57 85 1005.8
20260505233215 26 90 0.0 0.0 1.04 9.55 10.52 85 1005.8
20260505232708 26 90 0.0 0.0 1.02 9.53 10.49 85 1005.9
20260505232202 26 90 0.0 0.0 1.07 9.47 10.44 85 1005.8
20260505231656 26 90 0.0 0.0 0.86 9.25 10.21 85 1005.8
20260505231150 26 90 0.0 0.0 1.19 9.22 10.19 85 1005.8
20260505230644 27 90 0.0 0.0 1.27 9.07 10.03 85 1005.8
20260505230410 27 90 0.0 0.0 1.19 8.94 9.93 85 1006.0
20260505225126 27 90 0.0 0.0 1.35 8.84 9.80 84 1005.9
20260505224621 27 90 0.0 0.0 1.47 8.79 9.75 84 1005.9
20260505224114 27 90 0.0 0.0 1.52 8.69 9.65 84 1006.0
20260505223608 27 90 0.0 0.0 1.65 8.56 9.53 84 1006.0
20260505223102 27 90 0.0 0.0 1.65 8.51 9.47 84 1006.0
20260505222557 27 90 0.0 0.0 1.73 8.51 9.47 84 1006.1